Weather Roundup
Issued by NWS Corpus Christi, TX

Current Version | Previous Version | Text Only | Print | Product List | Glossary On
Versions: 1 2 3 4 5 6 7 8 9 10 11 12 13 14 15 16 17 18 19 20 21 22 23 24 25 26 27 28 29 30 31 32 33 34 35 36 37 38 39 40 41 42 43 44 45 46 47 48 49 50
000
ASUS44 KCRP 272210
HRRCRP

SOUTH TEXAS REGIONAL WEATHER ROUNDUP
NATIONAL WEATHER SERVICE CORPUS CHRISTI TX
500 PM CDT FRI MAY 27 2016


TXZ229>244-272300-
...CORPUS CHRISTI AREA OBSERVATIONS...

CITY           SKY/WX    TMP DP  RH WIND       PRES   REMARKS
CORPUS CHRISTI MOSUNNY   88  79  74 S25G33    29.61F HX 103
NAS CORPUS CHR MOSUNNY   86  80  82 S29G40    29.63F HX 101
ROCKPORT       CLOUDY    86  76  71 S16G38    29.63F HX  96
KINGSVILLE NAS MOSUNNY   95  83  68 SE21G26   29.60F HX 120
ALICE          SUNNY    101  66  31 SW8       29.58F HX 105
FALFURRIAS     SUNNY    100  71  39 S14       29.62R HX 108
$$

...VICTORIA AREA OBSERVATIONS...

CITY           SKY/WX    TMP DP  RH WIND       PRES   REMARKS
VICTORIA       CLOUDY    87  77  72 S20G28    29.66S HX  99
BEEVILLE       FAIR      92  83  72 SE16G22   29.62S HX 116
PLEASANTON     SUNNY     95  65  37 W6        29.64F HX  97
SAN ANTONIO    MOSUNNY   84  70  62 NE16G23   29.68S
$$

...LAREDO AREA OBSERVATIONS...

CITY           SKY/WX    TMP DP  RH WIND       PRES   REMARKS
LAREDO         SUNNY    101  54  20 NW15      29.62F HX  99
COTULLA        SUNNY     99  54  22 N10       29.63F HX  97
DEL RIO        SUNNY     98  31   9 N9        29.66F HX  92
MCALLEN        CLOUDY    91  79  67 SE13      29.67R HX 107
HEBBRONVILLE   SUNNY    101  43  13 CALM      29.64S HX  97
$$

...OTHER TEXAS OBSERVATIONS...

CITY           SKY/WX    TMP DP  RH WIND       PRES   REMARKS
BROWNSVILLE    PTSUNNY   86  76  71 S22G29    29.69R HX  96
HOUSTON        TSTM      67  66  97 S10       29.76F FOG
COL. STATION   CLOUDY    66  65  96 E9        29.75R
AUSTIN         PTSUNNY   76  69  79 NE13      29.72F
WACO           CLOUDY    80  61  52 E12       29.74S
FORT WORTH     CLOUDY    81  63  54 S14       29.72S
WICHITA FALLS  MOSUNNY   83  63  50 S17       29.64F
LUBBOCK        MOSUNNY   85  31  14 W22G29    29.74F
EL PASO        SUNNY     83  18   9 S8        29.85F
$$

...MARINE OBSERVATIONS...

STATION/POSITION TIME  SKY/WX   TEMP    WIND        PRES    VSBY  WAVE   SWELL
                                AIR SEA DIR/SP/G                  HT/PER HT/PER
                 (UTC)          (F)     (DEG/KT/KT) (MB)    (MI)  (FT/S) (FT/S)
PORT ARANSAS     2200            82 84  160/ 28/ 30 1003.9F
BUOY 90 E PORT A 2150            82 81  160/ 17/ 23 1006.4R         8/ 7   3/16
BUOY 45 SE BAFFI 2150            82 82  170/ 21/ 25 1004.2F         7/ 8   2/12
BUOY 200 E PT IS 2150                                 N/A           6/ 7
BUOY 15 E GALVES 2150            81 80  150/ 12/ 14 1009.2R         7/ 8   5/ 8
$$



USA.gov is the U.S. government's official web portal to all federal, state and local government web resources and services.